カタログに戻る

ARIANE 42P+ DEB

LostHEO
NORAD 28280·DEBRIS·🇫🇷 France

打ち上げ Oct 28, 1992 から Guiana Space Centre

Loading…

次のパス (今後24時間)

TLE

古いSource: Space-Track

元期: Jun 9, 2025, 07:27 UTC

1 28280U 92072P   25160.31074310 -.00000059  00000-0  00000+0 0  9997
2 28280   6.3750 181.5630 6519997  68.0240  10.5030  2.90905356245068

AllMySatでARIANE 42P+ DEBをリアルタイム追跡

Download on the App Store